Regional Weather Roundup
Issued by NWS

Home | Current Version | Previous Version | Text Only | Print | Product List | Glossary On
Versions: 1 2 3 4 5 6 7 8 9 10 11 12 13 14 15 16 17 18 19 20 21 22 23 24 25 26 27 28 29 30 31 32 33 34 35 36 37 38 39 40 41 42 43 44 45 46 47 48 49 50
000
ASUS44 KFWD 280915
RWRTX
NORTH TEXAS HOURLY WEATHER ROUNDUP
NATIONAL WEATHER SERVICE FORT WORTH TX
400 AM CDT TUE JUN 28 2016

NOTE: "FAIR" INDICATES FEW OR NO CLOUDS BELOW 12,000 FEET WITH NO
SIGNIFICANT WEATHER AND/OR OBSTRUCTIONS TO VISIBILITY.

TXZ118-119-281000-
DALLAS/FORT WORTH METROPLEX

CITY           SKY/WX    TMP DP  RH WIND       PRES   REMARKS
DFW AIRPORT    PTCLDY    80  71  74 N5        30.04F
DALLAS LOVE    PTCLDY    81  73  76 NE3       30.05S
FTW MEACHAM    CLEAR     77  70  79 N5        30.06S
DAL-EXECUTIVE  CLEAR     76  73  91 CALM      30.05R
FTW-ALLIANCE   PTCLDY    72  69  90 CALM      30.05S
FTW-NAS-JRB    CLEAR     77  70  79 W5        30.06S
FTW-SPINKS     CLEAR     75  73  91 CALM      30.07S
ARLINGTON      CLEAR     79  74  84 CALM      30.05S
GRAND PRAIRIE  CLEAR     80  72  77 CALM      30.07R
ADDISON        CLEAR     79  73  81 N3        30.07S
MESQUITE       CLEAR     76  75  96 S3        30.05R
LANCASTER      CLEAR     76  73  90 CALM      30.06R
$$

TXZ091>094-102>105-117-120-121-131>134-281000-
NORTH CENTRAL TEXAS

CITY           SKY/WX    TMP DP  RH WIND       PRES   REMARKS
SHRMAN/DENISON PTCLDY    74  74 100 CALM      30.07F
GAINESVILLE    PTCLDY    73  71  93 CALM      30.10S
BOWIE          CLEAR     74  72  93 CALM      30.09S
BRIDGEPORT     PTCLDY    73  73 100 CALM      30.09S
DECATUR        CLEAR     75  68  79 CALM      30.08S
DENTON         CLEAR     73  72  96 N5        30.06S
MCKINNEY       CLEAR     75  72  90 CALM      30.05S
GREENVILLE     CLEAR     75  72  88 S3        30.05S
ROCKWALL       CLEAR     77  74  90 CALM      30.04S
TERRELL        CLEAR     77  72  84 CALM      30.05S
WAXAHACHIE     PTCLDY    75  75  98 CALM      30.06S
CLEBURNE       CLEAR     73  73 100 CALM      30.08S
GRANBURY       CLEAR     74  69  86 SW5       30.08S
$$

TXZ083>090-098>101-113>116-127>130-139>142-154-155-281000-
WESTERN NORTH TEXAS

CITY           SKY/WX    TMP DP  RH WIND       PRES   REMARKS
WICHITA FALLS  CLEAR     74  70  87 E3        30.09S
WF-KICKAPOO    CLEAR     76  69  80 CALM      30.10S
VERNON         PTCLDY    77  67  71 CALM      30.11S
ABILENE        CLOUDY    73  68  84 SE6       30.13S
ABILENE-DYESS  CLOUDY    73  66  80 S2        30.12S
BRECKENRIDGE   CLOUDY    76  68  75 CALM      30.09S
GRAHAM         CLOUDY    74  68  81 CALM      30.08S
MINERAL WELLS  CLEAR     74  71  91 NW3       30.07S
STEPHENVILLE   CLEAR     73  67  82 CALM      30.12S
COMANCHE       CLEAR     72  70  94 S5        30.10F
BROWNWOOD      PTCLDY    73  68  83 CALM      30.11S
COLEMAN        CLOUDY    74  66  75 CALM      30.13S
$$

TXZ143>147-156>162-174-175-281000-
CENTRAL TEXAS

CITY           SKY/WX    TMP DP  RH WIND       PRES   REMARKS
WACO           CLEAR     77  72  84 CALM      30.04F
WACO-MCGREGOR  CLEAR     75  71  87 SW5       30.05F
HILLSBORO      CLEAR     77  72  83 CALM      30.05S
CORSICANA      CLEAR     78  73  84 N3        30.05R
MEXIA          CLEAR     76  73  93 CALM      30.04S
CAMERON        CLEAR     77  74  89 CALM      30.04F
TEMPLE         CLEAR     76  71  85 N3        30.06S
KILLEEN        MOCLDY    78  70  77 W3        30.07S
KILLEEN-SKYLRK CLEAR     77  71  82 NE3       30.07S
FORT HOOD      CLEAR     77  70  77 E2        30.05S
GATESVILLE     CLEAR     77  70  78 CALM      30.09S
HAMILTON       CLEAR     74  69  85 N3        30.11R
LAMPASAS       CLEAR     76  70  83 CALM      30.09R
$$

TXZ095>097-106>112-122>126-135>138-148>153-164>167-281000-
EAST TEXAS

CITY           SKY/WX    TMP DP  RH WIND       PRES   REMARKS
PARIS          CLEAR     73  64  73 CALM      30.05R
SULPHUR SPRNGS CLEAR     77  75  94 CALM      30.06S
MOUNT PLEASANT PTCLDY    74  74 100 CALM      30.05S
GILMER         PTCLDY    73  72  96 CALM      30.03F
MINEOLA        CLOUDY    75  73  94 CALM      30.04S
TYLER          CLOUDY    78  72  81 CALM      30.04S
LONGVIEW       CLEAR     74  73  97 CALM      30.02S
MARSHALL       CLEAR     73  70  93 CALM      30.04S
ATHENS         CLEAR     73  73 100 CALM      30.03S
PALESTINE      CLEAR     76  74  96 CALM      30.05R
JACKSONVILLE   CLEAR     76  73  92 CALM      30.06S
HENDERSON      PTCLDY    73  72  98 CALM      30.04S
CENTER         FAIR      76  74  96 MISG      30.01S
NACOGDOCHES    PTCLDY    73  70  88 CALM      30.02S
LUFKIN         PTCLDY    74  73  97 CALM      30.02S
$$

SUPPLEMENTAL OBSERVATIONS (CENTRAL)

CITY           SKY/WX    TMP DP  RH WIND       PRES   REMARKS
LAKE TEXOMA      N/A     81  77  89 W2          N/A
CADDO GRASSLND   N/A     72  68  88 CALM        N/A
PAT MAYSE LAKE   N/A     75  73  94 CALM        N/A
ATHENS           N/A     75  72  88 W1          N/A
LAKE LIMESTONE   N/A     75  73  94 E1          N/A
MCGREGOR         N/A     75  72  88 CALM        N/A
$$

SUPPLEMENTAL OBSERVATIONS (WEST)

CITY           SKY/WX    TMP DP  RH WIND       PRES   REMARKS
MILLERS CREEK    N/A     77  66  69 W2          N/A
LBJ GRASSLAND    N/A     75  70  83 NW2         N/A
COMANCHE         N/A     73  66  78 SW3         N/A
HAMBY            N/A     75  66  73 S2          N/A
IVIE RESERVOIR   N/A     75  64  69 NE3         N/A
COLORADO BEND    N/A     72  64  78 CALM        N/A
$$

SUPPLEMENTAL OBSERVATIONS (EAST)

CITY           SKY/WX    TMP DP  RH WIND       PRES   REMARKS
CLARKSVILLE      N/A     73  72  94 NW1         N/A
CADDO LAKE       N/A     72  68  88 CALM        N/A
GILMER           N/A     73  70  88 CALM        N/A
HENDERSON        N/A     72  68  88 CALM        N/A
LUFKIN           N/A     73  70  88 MISG        N/A
S SABINE NF      N/A     72  68  88 CALM        N/A
$$

SUPPLEMENTAL OBSERVATIONS ARE A COLLECTION OF AUTOMATED INSTRUMENTS
THAT ARE MAINTAINED BY A VARIETY OF FEDERAL AND STATE AGENCIES.
CERTAIN ELEMENTS...SUCH AS HUMIDITY VALUES AND SUSTAINED WIND
SPEEDS...MAY BE APPROXIMATED.





USA.gov is the U.S. government's official web portal to all federal, state and local government web resources and services.